Regional Weather Roundup
Issued by NWS Sterling, VA

Home | Current Version | Previous Version | Graphics & Text | Print | Product List | Glossary On
Versions: 1 2 3 4 5 6 7 8 9 10 11 12 13 14 15 16 17 18 19 20 21 22 23 24 25 26 27 28 29 30 31 32 33 34 35 36 37 38 39 40 41 42 43 44 45 46 47 48 49
000
ASUS41 KLWX 302110
RWRLWX

REGIONAL WEATHER ROUNDUP
NATIONAL WEATHER SERVICE BALTIMORE MD/WASHINGTON DC
500 PM EDT TUE SEP 30 2014

Note: "FAIR" indicates few or no clouds below 12,000 feet
with no significant weather and/or obstructions to visibility.
 TC=TEMPERATURE CELSIUS

 * =Non NWS site. Station does not report precipitation (e.g. rain,
    snow, etc.), thunder, or fog.

DCZ001-MDZ009-015-VAZ040>042-051-053>054-302200-
WASHINGTON METRO

CITY           SKY/WX    TMP DP  RH WIND       PRES   REMARKS
WASHINGTON NAT MOSUNNY   77  59  53 CALM      29.87F
DULLES         MOSUNNY   71  61  70 SE3       29.88S
ANDREWS AFB    SUNNY     75  61  60 SE9       29.87S
QUANTICO       MOSUNNY   73  61  65 SW3       29.88F
COLLEGE PARK*  MOSUNNY   79  61  53 E6        29.86S
LEESBURG*      MOSUNNY   72  64  78 S9        29.88F
MANASSAS*      MOSUNNY   73  63  68 SE3       29.88
GAITHERSBURG*  MOSUNNY   73  61  64 S6        29.91S

$$

MDZ006>007-011-014-302200-
BALTIMORE METRO

CITY           SKY/WX    TMP DP  RH WIND       PRES   REMARKS
BWI AIRPORT    MOSUNNY   75  58  55 S5        29.86F
MD SCIENCE CTR   N/A     75  56  51 MISG      29.87F
MARTIN STATE   MOSUNNY   77  63  61 SE5       29.88F
ANNAPOLIS      SUNNY     73  62  68 SE6       29.86F
FORT MEADE*    MOSUNNY   73  57  56 SE6       29.89S

$$

MDZ012-015-019>023-302200-
MARYLAND EASTERN SHORE

CITY           SKY/WX    TMP DP  RH WIND       PRES   REMARKS
OCEAN CITY     MOSUNNY   72  63  73 E8        29.89S
SALISBURY      MOSUNNY   77  62  59 E10       29.87F
BAY BRIDGE AP*   N/A     73  61  64 W6        29.87S
CAMBRIDGE*     SUNNY     79  59  50 CALM      29.86S
EASTON*        MOSUNNY   75  64  69 CALM      29.90S

$$

MDZ017>025-302200-
SOUTHERN MARYLAND

CITY           SKY/WX    TMP DP  RH WIND       PRES   REMARKS
PATUXENT RIVER MOSUNNY   74  60  61 SE7       29.86F
ST INIGOES     SUNNY     74  60  61 S5        29.86F
LEONARDTOWN*   SUNNY     73  59  60 E5        29.88S

$$

MDZ003>005-302200-
NORTH CENTRAL MARYLAND

CITY           SKY/WX    TMP DP  RH WIND       PRES   REMARKS
FREDERICK*     MOSUNNY   81  63  54 SW9       29.88F
HAGERSTOWN APT MOSUNNY   76  60  57 S13       29.84F
WESTMINSTER*   MOSUNNY   75  61  60 E6        29.88S

$$

MDZ501>502-302200-
WESTERN MARYLAND

CITY           SKY/WX    TMP DP  RH WIND       PRES   REMARKS
OAKLAND*       CLOUDY    54  54 100 NW10G21   29.98R FOG
CUMBERLAND*    MOSUNNY   81  50  34 NW9       29.86S

$$

VAZ025>031-302200-
SHENANDOAH VALLEY

CITY           SKY/WX    TMP DP  RH WIND       PRES   REMARKS
WINCHESTER*    SUNNY     73  61  64 SE12      29.86F
STAUNTON*      MOSUNNY   77  55  47 SE12      29.88R HAZE

$$

WVZ021-048>050-054>055-302200-
EASTERN WEST VIRGINIA PANHANDLE

CITY           SKY/WX    TMP DP  RH WIND       PRES   REMARKS
MARTINSBURG    SUNNY     74  59  59 SE8       29.85F
PETERSBURG*    SUNNY    N/A N/A N/A W9        29.83F

$$

VAZ036>039-050-302200-
CENTRAL FOOTHILLS

CITY           SKY/WX    TMP DP  RH WIND       PRES   REMARKS
CHARLOTTESVILL CLOUDY    69  62  78 S6        29.88S
ORANGE*        CLOUDY    70  61  73 CALM      29.90S

$$

VAZ055>057-302200-
NORTH AND CENTRAL PIEDMONT

CITY           SKY/WX    TMP DP  RH WIND       PRES   REMARKS
FREDERICKSBRG* SUNNY     75  62  63 SW5       29.86F
STAFFORD*      SUNNY     72  61  68 CALM      29.91F

$$

NCZ024-NYZ072-PAZ021-071-VAZ022-071-302200-
OTHER REGIONAL OBSERVATIONS

CITY           SKY/WX    TMP DP  RH WIND       PRES   REMARKS
NEW YORK CITY  CLOUDY    68  57  68 VRB5      29.96S
PHILADELPHIA   PTSUNNY   78  54  43 NE5       29.88F
PITTSBURGH     MOSUNNY   67  58  72 SW3       29.89F
ROANOKE        MOSUNNY   81  50  33 SW6       29.88F
RICHMOND       MOSUNNY   74  62  66 E8        29.87F
RALEIGH        MOSUNNY   74  62  66 NE3       29.87F

$$

ANZ530>537-302200-
MARINE OBSERVATIONS

STATION/POSITION TIME  TEMP    WIND        PRES
                       AIR SEA DIR/SP/G
                 (UTC) (F)     (DEG/KT/KT) (MB)
THOMAS PT LIGHT  2100   73 73   CALM  /  1 1012.4F
BALT KEY BRIDGE  2100   73     110/  6/  7 1011.2F
COVE POINT       2100   71     170/  7/  7 1011.1F
LEWISETTA        2100   72 71  120/  6/  7 1010.8F
SOLOMONS ISLAND  2100      74                N/A
PINEY POINT      2100          170/  5/  6   N/A

$$




USA.gov is the U.S. government's official web portal to all federal, state and local government web resources and services.